Lubbock, TX

4:59 AM CDT on March 30, 2017 (GMT -0500)
Lubbock International

Weather History for KLBB - March, 2014

Change the Weather History Date:

Tuesday, March 25, 2014

  Actual Average Record
Temperature  
Mean Temperature 45 °F 54 °F  
Max Temperature 60 °F 69 °F 90 °F (1998)
Min Temperature 29 °F 39 °F 19 °F (2013)
Degree Days  
Heating Degree Days 20 11  
Month to date heating degree days 413 353  
Since 1 July heating degree days 3265 3092  
Cooling Degree Days 0 0  
Month to date cooling degree days 2 0  
Year to date cooling degree days 2 0  
Moisture  
Dew Point 23 °F    
Average Humidity 46    
Maximum Humidity 63    
Minimum Humidity 28    
Precipitation  
Precipitation 0.00 in 0.04 in 1.33 in (2007)
Month to date precipitation 0.01 0.87  
Year to date precipitation 0.17 2.27  
Snow  
Snow 0.00 in 0.00 in 4.00 in (1934)
Month to date snowfall T 0.5  
Since 1 July snowfall 4.2 7.9  
Snow Depth 0.00 in    
Sea Level Pressure  
Sea Level Pressure 30.19 in    
Wind  
Wind Speed 13 mph (ESE)    
Max Wind Speed 23 mph    
Max Gust Speed 28 mph    
Visibility 10 miles    
Events      
T = Trace of Precipitation, MM = Missing Value Source: NWS Daily Summary

Daily Weather History Graph

Daily Weather History Graph

Search for Another Location

Airport or City:

Trip Planner

Search our weather history database for the weather conditions in past years. The results will help you decide how hot, cold, wet, or windy it might be!

Date:

Astronomy

Mar. 25, 2014 Rise Set
Actual Time 7:44 AM CDT 8:02 PM CDT
Civil Twilight 7:19 AM CDT 8:27 PM CDT
Nautical Twilight 6:50 AM CDT 8:56 PM CDT
Astronomical Twilight 6:20 AM CDT 9:26 PM CDT
Moon 3:53 AM CDT (3/25) 2:49 PM CDT (3/25)
Length of Visible Light 13h 08m
Length of Day
12h 18m
Waning Crescent, 32% of the Moon is Illuminated
Mar 25
Waning Crescent
Mar 30
New
Apr 7
First Quarter
Apr 15
Full
Apr 22
Last Quarter

Hourly Weather History & Observations

Time (CDT) Temp. Windchill Dew Point Humidity Pressure Visibility Wind Dir Wind Speed Gust Speed Precip Events Conditions
12:53 AM 41.0 °F 34.3 °F 19.0 °F 41% 30.18 in 10.0 mi NE 11.5 mph - N/A   Clear
1:53 AM 39.0 °F 31.8 °F 19.9 °F 46% 30.19 in 10.0 mi NE 11.5 mph - N/A   Clear
2:53 AM 37.0 °F 29.3 °F 19.0 °F 48% 30.21 in 10.0 mi NE 11.5 mph - N/A   Clear
3:53 AM 36.0 °F 28.5 °F 19.9 °F 52% 30.20 in 10.0 mi NE 10.4 mph - N/A   Clear
4:53 AM 34.0 °F 24.6 °F 19.9 °F 56% 30.19 in 10.0 mi NE 13.8 mph - N/A   Clear
5:53 AM 33.1 °F 22.6 °F 21.9 °F 64% 30.20 in 10.0 mi NE 16.1 mph - N/A   Clear
6:53 AM 32.0 °F 25.6 °F 21.0 °F 64% 30.26 in 9.0 mi East 6.9 mph - N/A   Clear
7:53 AM 30.0 °F 25.2 °F 19.9 °F 66% 30.30 in 8.0 mi ESE 4.6 mph - N/A   Clear
8:53 AM 35.1 °F 30.1 °F 23.0 °F 61% 30.32 in 10.0 mi ESE 5.8 mph - N/A   Partly Cloudy
9:53 AM 39.0 °F 30.3 °F 21.9 °F 50% 30.33 in 10.0 mi SE 16.1 mph - N/A   Scattered Clouds
10:53 AM 42.1 °F 34.2 °F 21.9 °F 45% 30.34 in 10.0 mi ESE 16.1 mph - N/A   Overcast
11:53 AM 46.0 °F 40.6 °F 21.0 °F 37% 30.33 in 10.0 mi SE 11.5 mph - N/A   Overcast
12:53 PM 48.0 °F - 21.0 °F 34% 30.29 in 10.0 mi SE 15.0 mph - N/A   Overcast
1:53 PM 50.0 °F - 19.9 °F 31% 30.26 in 10.0 mi SSE 16.1 mph - N/A   Overcast
2:53 PM 51.1 °F - 19.0 °F 28% 30.21 in 10.0 mi SE 17.3 mph - N/A   Overcast
3:53 PM 54.0 °F - 21.9 °F 29% 30.17 in 10.0 mi SSE 17.3 mph - N/A   Overcast
4:53 PM 57.0 °F - 27.0 °F 32% 30.12 in 10.0 mi SSE 19.6 mph 26.5 mph N/A   Mostly Cloudy
5:53 PM 60.1 °F - 28.9 °F 31% 30.09 in 10.0 mi SSE 17.3 mph - N/A   Partly Cloudy
6:53 PM 60.1 °F - 28.9 °F 31% 30.07 in 10.0 mi SSE 17.3 mph - N/A   Partly Cloudy
7:53 PM 57.0 °F - 28.0 °F 33% 30.06 in 10.0 mi SSE 12.7 mph - N/A   Clear
8:53 PM 53.1 °F - 27.0 °F 37% 30.05 in 10.0 mi SE 12.7 mph - N/A   Partly Cloudy
9:53 PM 48.9 °F - 25.0 °F 39% 30.06 in 10.0 mi SE 10.4 mph - N/A   Clear
10:53 PM 48.9 °F - 24.1 °F 38% 30.06 in 10.0 mi SE 12.7 mph - N/A   Clear
11:53 PM 46.9 °F - 24.1 °F 41% 30.04 in 10.0 mi SE 10.4 mph - N/A   Scattered Clouds